Date String (YYYY-MM-DD hh:mm:ss) UTC,Instrument flags,Ambient pressure (hPa),Sample flow (lpm),Bypass flow (lpm),Sample temperature (°C),Ambient temperature (°C),ASC tube jacket temperature (°C),LED temperature (°C),Box temperature (°C),Sample RH (%),Span deviation,Mass concentration (μg/m³),Mass concentration (μg/m³),Mass concentration (μg/m³)
DateTimeUTC,F1_M11,P_M11,Q1_M11,Q2_M11,T1_M11,T2_M11,T3_M11,T4_M11,T5_M11,U1_M11,ZSPAN_M11,X0_M11,X2_M11,X1_M11
2022-02-27 14:00:00,,0831.7,5.01,0.00,21.8,21.3,00.0,30.9,23.4,05.1,0000.0,0001.86,0001.50,0001.30
2022-02-27 14:01:00,,0831.6,5.00,0.00,21.8,21.2,00.0,30.9,23.4,05.0,0000.0,0001.83,0001.47,0001.27
2022-02-27 14:02:00,,0831.7,4.99,0.00,21.8,21.1,00.0,30.8,23.3,05.0,0000.0,0001.91,0001.45,0001.25
2022-02-27 14:03:00,,0831.7,5.01,0.00,21.7,21.1,00.0,30.8,23.3,05.0,0000.0,0001.93,0001.43,0001.22
2022-02-27 14:04:00,,0831.7,4.99,0.00,21.7,21.3,00.0,30.8,23.3,05.0,0000.0,0001.87,0001.38,0001.19
2022-02-27 14:05:00,,0831.7,5.01,0.00,21.8,22.2,00.0,30.9,23.6,04.9,0000.0,0001.94,0001.38,0001.17
2022-02-27 14:06:00,,0831.7,5.00,0.00,22.0,22.9,00.0,30.9,23.9,04.9,0000.0,0002.10,0001.43,0001.18
2022-02-27 14:07:00,,0831.7,5.00,0.00,22.1,22.7,00.0,30.9,24.0,04.9,0000.0,0002.18,0001.47,0001.19
2022-02-27 14:08:00,,0831.7,5.00,0.00,22.1,22.5,00.0,30.9,24.0,05.0,0000.0,0002.22,0001.48,0001.19
2022-02-27 14:09:00,,0831.7,5.00,0.00,22.1,22.2,00.0,31.0,24.0,05.0,0000.0,0002.26,0001.49,0001.19
2022-02-27 14:10:00,,0831.7,4.99,0.00,22.1,22.0,00.0,31.0,23.9,05.1,0000.0,0002.38,0001.53,0001.22
2022-02-27 14:11:00,,0831.6,5.01,0.00,22.1,21.9,00.0,31.0,23.8,05.2,0000.0,0002.54,0001.59,0001.25
2022-02-27 14:12:00,,0831.6,5.01,0.00,22.1,21.7,00.0,31.0,23.8,05.2,0000.0,0002.61,0001.63,0001.27
2022-02-27 14:13:00,,0831.7,4.98,0.00,22.1,21.6,00.0,31.0,23.8,05.1,0000.0,0002.77,0001.67,0001.29
2022-02-27 14:14:00,,0831.7,5.01,0.00,22.0,21.6,00.0,31.0,23.8,05.1,0000.0,0002.77,0001.69,0001.32
2022-02-27 14:15:00,,0831.7,5.00,0.00,22.0,21.5,00.0,31.0,23.7,05.2,0000.0,0002.88,0001.73,0001.35
2022-02-27 14:16:00,,0831.8,5.00,0.00,22.0,21.5,00.0,31.0,23.7,05.2,0000.0,0002.75,0001.70,0001.35
2022-02-27 14:17:00,,0831.9,5.00,0.00,22.0,21.4,00.0,31.0,23.6,05.2,0000.0,0002.61,0001.65,0001.34
2022-02-27 14:18:00,,0831.9,5.00,0.00,21.9,21.3,00.0,31.0,23.6,05.2,0000.0,0002.62,0001.64,0001.34
2022-02-27 14:19:00,,0831.9,5.00,0.00,21.9,21.3,00.0,31.0,23.6,05.3,0000.0,0002.60,0001.64,0001.34
2022-02-27 14:20:00,,0831.9,5.00,0.00,21.9,21.3,00.0,31.0,23.6,05.4,0000.0,0002.55,0001.62,0001.36
2022-02-27 14:21:00,,0831.9,5.00,0.00,22.0,22.0,00.0,31.0,23.8,05.5,0000.0,0002.53,0001.67,0001.41
2022-02-27 14:22:00,,0831.9,5.01,0.00,22.1,23.1,00.0,31.0,24.1,05.6,0000.0,0002.49,0001.74,0001.52
2022-02-27 14:23:00,,0832.0,4.98,0.00,22.3,23.3,00.0,31.1,24.3,05.5,0000.0,0002.56,0001.85,0001.66
2022-02-27 14:24:00,,0832.0,5.01,0.00,22.3,23.0,00.0,31.1,24.3,05.4,0000.0,0002.47,0001.95,0001.78
2022-02-27 14:25:00,,0832.0,5.01,0.00,22.4,22.8,00.0,31.1,24.3,05.4,0000.0,0002.64,0002.09,0001.89
2022-02-27 14:26:00,,0832.0,4.99,0.00,22.4,22.6,00.0,31.1,24.3,05.3,0000.0,0002.68,0002.13,0001.93
2022-02-27 14:27:00,,0832.0,4.99,0.00,22.4,22.4,00.0,31.2,24.2,05.3,0000.0,0002.88,0002.20,0001.98
2022-02-27 14:28:00,,0832.0,5.00,0.00,22.4,22.2,00.0,31.2,24.2,05.3,0000.0,0002.98,0002.27,0002.04
2022-02-27 14:29:00,,0832.1,5.01,0.00,22.4,22.1,00.0,31.2,24.1,05.3,0000.0,0003.01,0002.31,0002.07
2022-02-27 14:30:00,,0832.1,4.99,0.00,22.3,22.0,00.0,31.2,24.1,05.1,0000.0,0002.98,0002.28,0002.06
2022-02-27 14:31:00,,0832.1,5.00,0.00,22.3,21.9,00.0,31.2,24.1,05.1,0000.0,0002.99,0002.25,0002.03
2022-02-27 14:32:00,,0832.1,5.01,0.00,22.3,21.9,00.0,31.2,24.1,05.0,0000.0,0002.92,0002.18,0001.96
2022-02-27 14:33:00,,0832.1,5.00,0.00,22.3,21.8,00.0,31.2,24.1,05.0,0000.0,0002.81,0002.06,0001.83
2022-02-27 14:34:00,,0832.1,5.00,0.00,22.3,21.8,00.0,31.2,24.0,05.0,0000.0,0002.74,0001.93,0001.68
2022-02-27 14:35:00,,0832.1,5.00,0.00,22.3,21.8,00.0,31.2,24.0,04.9,0000.0,0002.65,0001.78,0001.55
2022-02-27 14:36:00,,0832.2,5.00,0.00,22.3,21.8,00.0,31.2,24.0,04.9,0000.0,0002.40,0001.62,0001.42
2022-02-27 14:37:00,,0832.1,5.00,0.00,22.3,21.7,00.0,31.2,24.0,04.9,0000.0,0002.31,0001.56,0001.37
2022-02-27 14:38:00,,0832.2,4.99,0.00,22.3,21.7,00.0,31.2,24.0,05.0,0000.0,0002.18,0001.51,0001.31
2022-02-27 14:39:00,,0832.1,5.00,0.00,22.3,21.7,00.0,31.2,24.0,05.0,0000.0,0002.14,0001.46,0001.24
2022-02-27 14:40:00,,0832.2,5.00,0.00,22.3,21.7,00.0,31.2,24.1,04.9,0000.0,0002.06,0001.39,0001.19
2022-02-27 14:41:00,,0832.2,5.00,0.00,22.3,21.7,00.0,31.2,24.1,05.0,0000.0,0002.08,0001.39,0001.17
2022-02-27 14:42:00,,0832.2,5.01,0.00,22.3,21.7,00.0,31.2,24.1,05.5,0000.0,0002.02,0001.37,0001.15
2022-02-27 14:43:00,,0832.3,5.00,0.00,22.3,21.7,00.0,31.2,24.1,05.8,0000.0,0002.02,0001.36,0001.14
2022-02-27 14:44:00,,0832.3,5.01,0.00,22.3,21.7,00.0,31.2,24.1,05.5,0000.0,0002.19,0001.36,0001.12
2022-02-27 14:45:00,,0832.3,5.00,0.00,22.3,21.7,00.0,31.2,24.1,05.5,0000.0,0002.18,0001.34,0001.10
2022-02-27 14:46:00,,0832.4,5.00,0.00,22.3,21.7,00.0,31.2,24.1,05.3,0000.0,0002.08,0001.33,0001.10
2022-02-27 14:47:00,,0832.4,5.00,0.00,22.3,22.3,00.0,31.3,24.2,05.1,0000.0,0002.45,0001.30,0001.07
2022-02-27 14:48:00,,0832.3,5.01,0.00,22.5,23.4,00.0,31.3,24.5,05.1,0000.0,0002.77,0001.27,0001.04
2022-02-27 14:49:00,,0832.4,4.99,0.00,22.7,23.7,00.0,31.4,24.7,05.1,0000.0,0002.74,0001.25,0001.02
2022-02-27 14:50:00,,0832.3,5.01,0.00,22.7,23.4,00.0,31.4,24.7,05.0,0000.0,0002.66,0001.22,0001.01
2022-02-27 14:51:00,,0832.4,5.00,0.00,22.7,23.2,00.0,31.4,24.7,05.1,0000.0,0002.57,0001.19,0000.99
2022-02-27 14:52:00,,0832.4,5.00,0.00,22.8,23.0,00.0,31.5,24.7,05.2,0000.0,0002.47,0001.16,0000.99
2022-02-27 14:53:00,,0832.4,5.00,0.00,22.8,22.8,00.0,31.5,24.6,05.2,0000.0,0002.46,0001.16,0000.99
2022-02-27 14:54:00,,0832.4,5.02,0.00,22.8,22.7,00.0,31.5,24.6,05.1,0000.0,0002.52,0001.18,0001.01
2022-02-27 14:55:00,,0832.3,4.99,0.00,22.8,22.5,00.0,31.5,24.6,04.9,0000.0,0002.36,0001.19,0001.02
2022-02-27 14:56:00,,0832.3,5.00,0.00,22.7,22.4,00.0,31.5,24.5,04.8,0000.0,0002.32,0001.19,0001.02
2022-02-27 14:57:00,,0832.4,5.01,0.00,22.7,22.4,00.0,31.6,24.5,04.8,0000.0,0002.37,0001.21,0001.02
2022-02-27 14:58:00,,0832.4,5.00,0.00,22.7,22.3,00.0,31.6,24.5,04.8,0000.0,0001.95,0001.23,0001.04
2022-02-27 14:59:00,,0832.3,5.01,0.00,22.7,22.2,00.0,31.6,24.4,04.7,0000.0,0001.62,0001.24,0001.05
